X  Close Light rain until this evening, starting again tomorrow evening.
Conditions Temperature Feels Precipitation Wind Wind Direction UV index Pressure
08:00 rain Drizzle 16° 0.36 mm 66% 10-19 km/h South South - 1009,5
09:00 rain Possible Drizzle 16° 0.24 mm 54% 10-18 km/h South South - 1009,2
10:00 rain Possible Drizzle 17° 0.18 mm 44% 11-16 km/h SSW SSW uv-1 1009,1
11:00 rain Possible Drizzle 17° 0.13 mm 35% 12-14 km/h SSW SSW uv-3 1008,9
12:00 rain Possible Drizzle 17° 0.08 mm 31% 14-14 km/h SW SW uv-3 1008,5
13:00 rain Possible Drizzle 17° 0.06 mm 26% 16-16 km/h SW SW uv-4 1008,1
14:00 partly-cloudy-day Mostly Cloudy 17° 0.05 mm 20% 16-16 km/h SW SW uv-4 1007,7
15:00 partly-cloudy-day Mostly Cloudy 18° 0.03 mm 15% 15-15 km/h SSW SSW uv-4 1007,2
16:00 partly-cloudy-day Mostly Cloudy 19° 0.01 mm 11% 12-14 km/h West West uv-3 1007,0
17:00 partly-cloudy-day Mostly Cloudy 19° 0.02 mm 10% 11-14 km/h WSW WSW uv-1 1006,8
18:00 partly-cloudy-day Mostly Cloudy 18° 0.04 mm 14% 11-15 km/h West West - 1006,9
19:00 rain Possible Drizzle 17° 0.1 mm 26% 11-15 km/h SW SW - 1007,5
20:00 rain Possible Drizzle 16° 0.14 mm 31% 11-14 km/h SW SW - 1008,0
21:00 partly-cloudy-night Mostly Cloudy 15° 0.11 mm 23% 9-12 km/h South South - 1008,4
22:00 partly-cloudy-night Mostly Cloudy 15° 0.05 mm 11% 8-8 km/h North North - 1008,7
23:00 partly-cloudy-night Mostly Cloudy 14° 0.02 mm 6% 7-7 km/h WNW WNW - 1008,8
00:00 partly-cloudy-night Mostly Cloudy 13° 0.01 mm 4% 6-7 km/h West West - 1008,7
01:00 partly-cloudy-night Mostly Cloudy 12° - 6-7 km/h NW NW - 1008,4
02:00 partly-cloudy-night Mostly Cloudy 12° - 6-7 km/h NW NW - 1007,7
03:00 partly-cloudy-night Mostly Cloudy 11° - 6-8 km/h NW NW - 1007,1
04:00 partly-cloudy-night Mostly Cloudy 11° - 6-8 km/h NNW NNW - 1006,4
05:00 cloudy Overcast 11° - 6-9 km/h North North - 1006,2
06:00 cloudy Overcast 11° - 7-9 km/h North North - 1006,1
07:00 cloudy Overcast 12° - 7-10 km/h North North - 1005,9
08:00 cloudy Overcast 12° - 8-12 km/h North North - 1005,9
09:00 cloudy Overcast 14° - 11-18 km/h North North - 1005,6
10:00 cloudy Overcast 17° - 14-26 km/h NNW NNW uv-1 1005,0
11:00 partly-cloudy-day Mostly Cloudy 19° - 17-32 km/h NNW NNW uv-3 1004,2
12:00 partly-cloudy-day Mostly Cloudy 21° - 19-35 km/h NNW NNW uv-4 1003,3
13:00 partly-cloudy-day Partly Cloudy 23° - 20-35 km/h NNW NNW uv-5 1002,5
14:00 clear-day Clear 24° - 21-35 km/h NNW NNW uv-5 1001,5
15:00 clear-day Clear 25° - 22-36 km/h NNW NNW uv-4 1000,2
16:00 partly-cloudy-day Partly Cloudy 25° - 22-36 km/h NNW NNW uv-3 998,8
17:00 partly-cloudy-day Partly Cloudy 24° - 23-38 km/h North North uv-1 997,9
18:00 partly-cloudy-day Partly Cloudy 23° 0.03 mm 8% 23-44 km/h North North - 997,5
19:00 partly-cloudy-day Partly Cloudy 20° 0.11 mm 16% 24-52 km/h NNW NNW - 997,6
20:00 rain Possible Drizzle 18° 0.27 mm 28% 25-57 km/h North North - 997,5
21:00 rain Possible Light Rain 17° 0.6 mm 43% 24-55 km/h NNE NNE - 997,3
22:00 rain Possible Light Rain 16° 1.14 mm 60% 23-50 km/h WNW WNW - 997,1
23:00 rain Light Rain 16° 1.48 mm 68% 23-45 km/h NW NW - 996,9
00:00 rain Light Rain 15° 1.2 mm 65% 23-43 km/h WNW WNW - 996,9
01:00 rain Possible Light Rain 14° 0.72 mm 57% 23-43 km/h NW NW - 996,9
02:00 rain Possible Light Rain 13° 0.44 mm 50% 24-42 km/h WNW WNW - 997,0
03:00 rain Possible Drizzle 13° 0.29 mm 48% 25-43 km/h West West - 997,0
04:00 rain Possible Drizzle 13° 0.18 mm 42% 27-44 km/h WNW WNW - 997,0
05:00 rain Possible Drizzle 13° 0.12 mm 35% 28-45 km/h WNW WNW - 997,2
06:00 rain Possible Drizzle 12° 0.09 mm 31% 28-46 km/h WNW WNW - 997,9
07:00 partly-cloudy-night Mostly Cloudy 12° 0.07 mm 24% 28-47 km/h West West - 998,7
08:00 partly-cloudy-day Partly Cloudy 12° 0.05 mm 22% 28-48 km/h West West - 999,5